Weather History for KGAD - February, 2015

Change the Weather History Date:

Saturday, February 28, 2015

  Actual Average Record
Temperature  
Mean Temperature 42 °F -  
Max Temperature 57 °F 57 °F 80 °F (1948)
Min Temperature 28 °F 36 °F 14 °F (2002)
Degree Days  
Heating Degree Days 22    
Moisture  
Dew Point 28 °F    
Average Humidity 56    
Maximum Humidity 70    
Minimum Humidity 44    
Precipitation  
Precipitation 0.00 in - - ()
Sea Level Pressure  
Sea Level Pressure 30.47 in    
Wind  
Wind Speed 8 mph (ENE)    
Max Wind Speed 12 mph    
Max Gust Speed -    
Visibility 10 miles    
Events      
Averages and records for this station are not official NWS values.
T = Trace of Precipitation, MM = Missing Value Source: NWS Daily Summary

Daily Weather History Graph

Daily Weather History Graph

Search for Another Location

Airport or City:

Trip Planner

Search our weather history database for the weather conditions in past years. The results will help you decide how hot, cold, wet, or windy it might be!

Date:

Astronomy

Feb. 28, 2015 Rise Set
Actual Time 6:14 AM CST 5:39 PM CST
Civil Twilight 5:49 AM CST 6:04 PM CST
Nautical Twilight 5:20 AM CST 6:33 PM CST
Astronomical Twilight 4:51 AM CST 7:02 PM CST
Moon 1:29 PM CST (2/28) 2:45 AM CST (2/28)
Length of Visible Light 12h 15m
Length of Day
11h 25m
Waxing Gibbous, 79% of the Moon is Illuminated
Feb 28
Waxing Gibbous
Mar 5
Full
Mar 13
Last Quarter
Mar 20
New
Mar 27
First Quarter

Hourly Weather History & Observations

Time (CST) Temp. Windchill Dew Point Humidity Pressure Visibility Wind Dir Wind Speed Gust Speed Precip Events Conditions
12:15 AM 32.0 °F 25.6 °F 19.4 °F 60% 30.48 in 10.0 mi North 6.9 mph - N/A   Mostly Cloudy
12:35 AM 32.0 °F 26.4 °F 19.4 °F 60% 30.48 in 10.0 mi North 5.8 mph - N/A   Mostly Cloudy
12:55 AM 32.0 °F 25.6 °F 19.4 °F 60% 30.48 in 10.0 mi North 6.9 mph - N/A   Mostly Cloudy
1:15 AM 30.2 °F 24.3 °F 17.6 °F 60% 30.48 in 10.0 mi North 5.8 mph - N/A   Partly Cloudy
1:35 AM 30.2 °F 25.4 °F 17.6 °F 60% 30.47 in 10.0 mi NNE 4.6 mph - N/A   Mostly Cloudy
1:55 AM 28.4 °F - 19.4 °F 69% 30.46 in 10.0 mi Calm Calm - N/A   Mostly Cloudy
2:15 AM 30.2 °F 25.4 °F 19.4 °F 64% 30.46 in 10.0 mi North 4.6 mph - N/A   Overcast
2:35 AM 30.2 °F 25.4 °F 19.4 °F 64% 30.46 in 10.0 mi North 4.6 mph - N/A   Overcast
2:55 AM 30.2 °F 23.4 °F 17.6 °F 60% 30.47 in 10.0 mi North 6.9 mph - N/A   Overcast
3:15 AM 32.0 °F 26.4 °F 19.4 °F 60% 30.47 in 10.0 mi NE 5.8 mph - N/A   Overcast
3:35 AM 32.0 °F 25.6 °F 19.4 °F 60% 30.48 in 10.0 mi NE 6.9 mph - N/A   Overcast
3:55 AM 32.0 °F 24.2 °F 19.4 °F 60% 30.48 in 10.0 mi NE 9.2 mph - N/A   Mostly Cloudy
4:15 AM 32.0 °F 23.6 °F 17.6 °F 55% 30.49 in 10.0 mi NE 10.4 mph - N/A   Mostly Cloudy
4:35 AM 32.0 °F 24.2 °F 17.6 °F 55% 30.49 in 10.0 mi ENE 9.2 mph - N/A   Scattered Clouds
4:55 AM 32.0 °F 24.2 °F 17.6 °F 55% 30.49 in 10.0 mi ENE 9.2 mph - N/A   Clear
5:15 AM 32.0 °F 24.2 °F 17.6 °F 55% 30.49 in 10.0 mi ENE 9.2 mph - N/A   Partly Cloudy
5:35 AM 32.0 °F 23.6 °F 17.6 °F 55% 30.50 in 10.0 mi ENE 10.4 mph - N/A   Mostly Cloudy
5:55 AM 32.0 °F 25.6 °F 17.6 °F 55% 30.50 in 10.0 mi ENE 6.9 mph - N/A   Overcast
6:15 AM 32.0 °F 25.6 °F 19.4 °F 60% 30.51 in 10.0 mi ENE 6.9 mph - N/A   Scattered Clouds
6:35 AM 32.0 °F 27.5 °F 19.4 °F 60% 30.51 in 10.0 mi ENE 4.6 mph - N/A   Clear
6:55 AM 32.0 °F 26.4 °F 19.4 °F 60% 30.53 in 10.0 mi NE 5.8 mph - N/A   Partly Cloudy
7:15 AM 33.8 °F 27.0 °F 19.4 °F 56% 30.53 in 10.0 mi NE 8.1 mph - N/A   Clear
7:35 AM 33.8 °F 27.0 °F 19.4 °F 56% 30.53 in 10.0 mi ENE 8.1 mph - N/A   Clear
7:55 AM 33.8 °F 26.4 °F 21.2 °F 60% 30.53 in 10.0 mi ENE 9.2 mph - N/A   Clear
8:15 AM 35.6 °F 27.5 °F 21.2 °F 56% 30.55 in 10.0 mi ENE 11.5 mph - N/A   Partly Cloudy
8:35 AM 35.6 °F 27.5 °F 21.2 °F 56% 30.55 in 10.0 mi ENE 11.5 mph - N/A   Partly Cloudy
8:55 AM 39.2 °F 32.5 °F 24.8 °F 56% 30.56 in 10.0 mi ENE 10.4 mph - N/A   Clear
9:15 AM 39.2 °F 33.0 °F 24.8 °F 56% 30.56 in 10.0 mi ENE 9.2 mph - N/A   Partly Cloudy
9:35 AM 41.0 °F 35.8 °F 26.6 °F 57% 30.55 in 10.0 mi ENE 8.1 mph - N/A   Clear
9:55 AM 42.8 °F 36.6 °F 26.6 °F 53% 30.54 in 10.0 mi ENE 11.5 mph - N/A   Clear
10:15 AM 42.8 °F 37.5 °F 28.4 °F 57% 30.54 in 10.0 mi ENE 9.2 mph - N/A   Clear
10:35 AM 44.6 °F 39.2 °F 28.4 °F 53% 30.53 in 10.0 mi ENE 10.4 mph - N/A   Clear
10:55 AM 44.6 °F 39.7 °F 30.2 °F 57% 30.53 in 10.0 mi ENE 9.2 mph - N/A   Clear
11:15 AM 46.4 °F 41.9 °F 30.2 °F 53% 30.51 in 10.0 mi ENE 9.2 mph - N/A   Clear
11:35 AM 46.4 °F 43.5 °F 30.2 °F 53% 30.51 in 10.0 mi East 5.8 mph - N/A   Clear
11:55 AM 48.2 °F - 32.0 °F 54% 30.50 in 10.0 mi East 9.2 mph - N/A   Clear
12:15 PM 50.0 °F - 33.8 °F 54% 30.50 in 10.0 mi ENE 8.1 mph - N/A   Clear
12:35 PM 51.8 °F - 33.8 °F 50% 30.48 in 10.0 mi ENE 6.9 mph - N/A   Clear
12:55 PM 53.6 °F - 35.6 °F 51% 30.47 in 10.0 mi ENE 11.5 mph - N/A   Clear
1:15 PM 53.6 °F - 35.6 °F 51% 30.45 in 10.0 mi NE 10.4 mph - N/A   Clear
1:35 PM 53.6 °F - 35.6 °F 51% 30.44 in 10.0 mi ENE 9.2 mph - N/A   Clear
1:55 PM 55.4 °F - 35.6 °F 47% 30.43 in 10.0 mi ENE 10.4 mph - N/A   Clear
2:15 PM 55.4 °F - 35.6 °F 47% 30.42 in 10.0 mi ENE 9.2 mph - N/A   Clear
2:35 PM 55.4 °F - 37.4 °F 51% 30.41 in 10.0 mi ENE 10.4 mph - N/A   Clear
2:55 PM 57.2 °F - 35.6 °F 44% 30.41 in 10.0 mi ENE 9.2 mph - N/A   Clear
3:15 PM 57.2 °F - 35.6 °F 44% 30.41 in 10.0 mi ENE 9.2 mph - N/A   Clear
3:35 PM 57.2 °F - 37.4 °F 48% 30.40 in 10.0 mi NE 8.1 mph - N/A   Clear
3:55 PM 55.4 °F - 35.6 °F 47% 30.41 in 10.0 mi NNE 10.4 mph - N/A   Partly Cloudy
4:15 PM 55.4 °F - 37.4 °F 51% 30.40 in 10.0 mi NE 6.9 mph - N/A   Mostly Cloudy
4:35 PM 55.4 °F - 35.6 °F 47% 30.41 in 10.0 mi NE 10.4 mph - N/A   Overcast
4:55 PM 55.4 °F - 35.6 °F 47% 30.40 in 10.0 mi ENE 11.5 mph - N/A   Overcast
5:15 PM 53.6 °F - 35.6 °F 51% 30.40 in 10.0 mi ENE 10.4 mph - N/A   Mostly Cloudy
5:35 PM 51.8 °F - 33.8 °F 50% 30.40 in 10.0 mi ENE 9.2 mph - N/A   Clear
5:55 PM 48.2 °F - 33.8 °F 58% 30.40 in 10.0 mi ENE 6.9 mph - N/A   Clear
6:15 PM 48.2 °F - 33.8 °F 58% 30.40 in 10.0 mi ENE 8.1 mph - N/A   Clear
6:35 PM 48.2 °F - 33.8 °F 58% 30.41 in 10.0 mi ENE 8.1 mph - N/A   Clear
6:55 PM 46.4 °F 43.5 °F 32.0 °F 57% 30.42 in 10.0 mi ENE 5.8 mph - N/A   Clear
7:15 PM 46.4 °F 43.5 °F 33.8 °F 62% 30.43 in 10.0 mi ENE 5.8 mph - N/A   Clear
7:35 PM 46.4 °F 42.9 °F 32.0 °F 57% 30.43 in 10.0 mi ENE 6.9 mph - N/A   Clear
7:55 PM 44.6 °F 40.7 °F 32.0 °F 61% 30.44 in 10.0 mi ENE 6.9 mph - N/A   Clear
8:15 PM 44.6 °F 40.2 °F 32.0 °F 61% 30.45 in 10.0 mi ENE 8.1 mph - N/A   Partly Cloudy
8:35 PM 42.8 °F 39.3 °F 33.8 °F 70% 30.45 in 10.0 mi ENE 5.8 mph - N/A   Scattered Clouds
8:55 PM 46.4 °F 42.9 °F 33.8 °F 62% 30.46 in 10.0 mi ENE 6.9 mph - N/A   Mostly Cloudy
9:15 PM 46.4 °F 42.4 °F 33.8 °F 62% 30.47 in 10.0 mi NE 8.1 mph - N/A   Overcast
9:35 PM 48.2 °F - 33.8 °F 58% 30.47 in 10.0 mi ENE 5.8 mph - N/A   Overcast
9:55 PM 50.0 °F - 33.8 °F 54% 30.47 in 10.0 mi ESE 8.1 mph - N/A   Overcast
10:15 PM 50.0 °F - 32.0 °F 50% 30.47 in 10.0 mi ESE 9.2 mph - N/A   Overcast
10:35 PM 50.0 °F - 32.0 °F 50% 30.47 in 10.0 mi ESE 6.9 mph - N/A   Overcast
10:55 PM 50.0 °F - 32.0 °F 50% 30.46 in 10.0 mi ESE 6.9 mph - N/A   Overcast
11:15 PM 48.2 °F - 32.0 °F 54% 30.46 in 10.0 mi ESE 6.9 mph - N/A   Overcast
11:35 PM 48.2 °F - 33.8 °F 58% 30.46 in 10.0 mi ESE 8.1 mph - N/A   Overcast
11:55 PM 48.2 °F - 33.8 °F 58% 30.46 in 10.0 mi ESE 8.1 mph - N/A   Overcast